Temp_Advection
nan nan nan nan nan nan nan nan nan nan nan nan nan nan nan nan nan nan nan nan nan nan nan nan nan nan nan nan nan nan nan nan nan nan nan nan nan nan nan nan nan nan nan nan nan
nan 0 -0 -0 -0 -0 0 0 0 0 0 0 -0 -0 -0 -0 -0 -1 -1 -0 -0 -0 -0 -1 -1 -1 -1 -0 -0 0 0 0 -0 -1 -0 -0 0 -1 -0 0 -1 -1 -0 -0 nan
nan -0 -0 -0 -0 -0 -0 0 0 0 0 0 -0 0 -0 -0 -0 -1 0 -0 -0 -0 0 -1 -1 -1 -1 -1 -0 0 -0 0 -0 -0 0 -1 -1 -0 -0 -0 -0 -1 0 -0 nan
nan 0 0 0 0 0 0 -0 -0 0 0 0 -0 -0 -0 -1 -0 0 0 -0 -0 0 -0 -1 -1 -1 -1 -0 0 -0 -0 0 0 -0 0 -2 0 0 0 0 -0 -1 -0 -0 nan
nan -0 0 0 0 0 0 0 0 -0 0 0 0 -0 0 -1 -1 -0 -0 -0 0 0 -1 -1 -1 -1 -1 0 -0 0 -0 -1 0 -0 -0 -0 1 -0 -0 0 -0 -0 -0 -0 nan
nan -0 0 0 0 0 0 0 0 0 0 0 0 0 -0 -2 -0 0 0 0 0 0 -1 -1 -1 -1 -0 0 -0 -0 -0 -1 -0 0 0 0 0 -0 -1 0 -0 -0 -0 -0 nan
nan -0 -0 0 0 0 0 0 0 0 0 0 0 0 -1 -2 -0 0 0 -0 -0 -1 -1 -1 -1 -0 0 0 -0 -1 -0 -0 -0 0 0 0 0 0 -0 -0 -0 -0 -0 -0 nan
nan 0 0 -0 0 0 0 0 0 -0 0 0 0 -0 -1 -0 0 -0 -0 -1 -1 -1 -1 -0 -0 -0 0 -0 0 -1 -0 0 0 0 -0 -1 1 0 1 0 -0 -0 -0 -0 nan
nan 0 0 0 0 -0 0 0 0 0 0 0 -0 -0 -1 0 -0 -0 -0 -0 -0 -1 -1 -0 -0 -0 -0 0 0 0 -0 -1 -0 0 0 -0 1 -0 0 2 -0 -0 -0 -0 nan
nan -0 -0 -0 0 -0 -0 0 -0 0 0 0 -0 -1 -2 -1 -0 -0 -0 -0 -0 -0 -0 0 -0 -0 -0 -0 0 -0 0 -1 -1 -0 0 0 -1 1 1 -1 1 -0 -0 0 nan
nan -0 -0 -0 -0 -0 -0 0 0 -0 -1 -1 -1 -1 -0 -0 -0 -0 -0 -0 -0 -0 -0 -0 -0 -1 -1 -0 0 -0 -0 -1 -0 -0 -0 0 -0 -1 0 -1 -1 0 0 0 nan
nan -0 -0 -0 -0 -0 0 -0 1 1 1 -1 -0 -0 -0 -0 -0 -0 -0 -0 -0 -0 -1 -0 -1 -2 -1 0 -0 -0 -1 -1 -0 -0 -0 -0 -0 0 -0 -1 -1 2 0 -0 nan
nan -0 -0 -0 -0 -0 -0 -0 -0 -0 -1 -0 -0 -0 -0 -0 -0 -0 -0 -1 -0 -0 -0 -1 -1 -1 0 0 0 -0 -0 -1 -0 -0 0 -0 -0 0 -0 -0 -2 -2 1 0 nan
nan -0 -0 -0 -0 -0 -1 0 0 0 -0 -0 -0 -0 -0 -0 -0 -0 -0 -0 -0 -0 -1 -1 -1 0 1 -0 -0 1 -3 -1 -0 -0 -0 -0 -0 0 0 -0 -0 -3 1 1 nan
nan 0 0 -0 -0 -0 -0 0 0 0 -0 0 -0 -0 -0 -0 -0 -0 -0 -0 -0 -0 -0 -0 -0 -0 -0 0 -1 -0 -1 -2 -0 0 0 -0 -0 -0 -0 -0 -1 -3 -0 0 nan
nan 0 -0 -0 -0 -0 -0 -0 0 -0 -0 0 0 -0 -0 -0 -0 -0 -0 -0 -1 -0 0 -1 -0 -0 -0 0 0 -2 -2 -2 -1 -0 -0 -1 -0 -0 -1 -4 -3 -1 -0 -0 nan
nan 0 -0 -0 -0 0 -0 0 0 -1 0 -0 -0 0 0 -0 -0 -0 -0 -0 -0 -0 -0 -0 -0 -0 0 0 0 0 -0 -0 -0 -1 -0 -0 -0 0 -2 -2 -1 -0 -0 -1 nan
nan -0 -0 -0 -0 -0 -0 0 -0 0 0 0 0 -0 -0 -1 0 -0 -0 -0 -1 -1 0 0 -0 -1 -0 0 -0 -0 1 -0 0 -0 0 -0 0 -0 -2 -1 0 -0 -1 -0 nan
nan -0 -0 0 0 -0 -0 -0 -0 0 -0 -0 0 -0 0 0 -0 -0 0 -1 0 0 0 0 -1 -0 0 -0 0 0 -0 0 -0 -0 0 -0 -0 -0 -0 -0 -1 -1 -1 0 nan
nan -1 -1 0 0 -0 -0 0 0 -0 -0 0 -0 -0 -0 -1 -0 0 -0 0 -0 -0 0 0 -1 0 0 0 0 -0 0 1 -1 -1 0 -0 -1 -0 1 2 -1 -1 -1 -0 nan
nan -1 -0 0 -0 -1 -1 0 0 -0 -0 -0 0 0 -0 0 -0 -0 -0 -0 0 0 -0 0 -0 0 0 0 -0 -0 -0 -0 1 -1 -1 -0 -0 -1 0 -1 -0 0 -0 -0 nan
nan -1 -0 -0 -1 -1 0 -0 -0 0 -0 -0 0 0 -0 0 -0 -0 -0 -0 -0 -0 0 0 0 -0 -1 -0 -0 0 -0 0 0 -0 -1 -0 0 -1 -1 -1 -1 -1 -0 -0 nan
nan -1 -0 -0 -0 -0 0 0 0 -0 -0 -0 -0 -0 -0 0 0 -0 -0 -0 -0 0 -0 -1 0 -0 -1 0 0 1 -0 -0 -0 1 1 1 -0 -1 -2 -2 -1 -1 -0 0 nan
nan -0 -0 -0 -1 -0 -0 0 0 0 -0 -0 -0 -0 0 -0 0 -0 0 -0 -0 -0 0 -0 -0 1 -0 -0 -0 -1 -2 -1 0 0 -0 1 -1 -1 -1 -1 -0 -0 -1 2 nan
nan -1 -0 -0 -0 -0 -0 -0 -0 0 -0 0 0 -0 -0 -0 -0 -0 -0 0 -0 0 -0 0 0 -1 0 0 0 0 -1 -1 -1 -0 -0 0 -0 -0 1 1 2 1 -0 1 nan
nan -1 -1 -0 0 0 -0 0 -0 -0 -0 -0 -0 -0 0 0 -0 -0 -0 0 -0 -0 -1 0 0 -0 -1 -0 0 -0 -1 -1 -1 -0 -0 0 0 0 -1 -3 -8 1 -0 -0 nan
nan nan nan nan nan nan nan nan nan nan nan nan nan nan nan nan nan nan nan nan nan nan nan nan nan nan nan nan nan nan nan nan nan nan nan nan nan nan nan nan nan nan nan nan nan
Wind_Speed
13 12 12 12 11 11 11 10 10 11 11 10 10 10 11 11 11 13 15 10 11 10 13 8 11 11 10 11 6 4 3 2 7 12 4 20 14 9 14 13 19 20 27 26 25
13 12 12 12 12 12 11 10 9 9 9 9 9 9 9 10 13 19 17 13 18 13 16 14 13 12 14 14 5 7 3 6 2 11 11 14 22 19 15 16 18 24 28 24 24
12 12 12 12 13 13 13 12 10 8 9 7 6 7 7 6 9 11 12 16 14 16 16 13 12 13 15 17 12 2 5 1 6 11 13 12 10 12 17 3 30 31 27 25 23
12 10 10 12 13 14 15 13 11 10 8 6 5 4 4 6 2 2 2 15 14 16 16 17 16 15 16 15 7 5 4 6 7 9 7 14 15 10 16 9 26 26 25 25 22
12 10 9 10 12 13 14 13 12 9 7 5 4 3 4 7 12 5 8 10 17 20 19 18 18 16 15 4 8 6 7 14 9 9 4 4 10 15 2 9 23 25 24 24 22
11 11 9 9 10 12 14 14 13 10 7 4 2 3 3 12 4 5 3 10 17 21 19 19 16 15 17 3 5 8 10 18 10 8 5 9 9 6 18 18 25 25 24 23 21
11 11 11 10 10 12 13 14 11 10 7 4 2 4 8 15 1 5 6 9 15 19 18 18 17 15 14 4 17 17 15 12 9 2 4 8 3 7 15 21 26 24 24 22 20
10 11 11 11 11 11 13 13 11 6 6 3 1 3 9 2 9 7 10 10 14 16 16 15 16 12 18 2 6 9 6 6 6 8 3 7 10 1 16 22 25 25 24 22 20
10 10 10 11 12 11 11 13 10 5 4 2 1 3 9 6 9 10 11 14 14 14 15 13 16 16 17 13 12 8 6 9 6 5 3 3 7 11 9 23 25 26 24 22 21
9 10 11 11 12 11 11 13 10 6 5 4 7 9 13 11 9 10 12 13 15 14 15 11 11 13 15 13 10 9 10 7 9 5 3 4 9 12 18 13 26 26 25 24 21
9 11 12 12 11 11 10 10 5 2 9 10 14 13 2 4 4 10 12 14 15 14 13 16 11 16 19 19 7 6 4 9 9 12 5 3 4 12 11 11 14 25 24 28 26
10 11 12 12 11 8 7 7 11 12 16 13 7 9 7 4 10 11 13 14 14 13 17 11 16 19 20 6 10 16 13 14 11 15 3 4 14 14 10 8 8 17 25 24 22
11 11 12 11 9 4 6 11 9 12 13 4 6 10 5 10 11 13 16 18 13 14 15 18 15 19 20 7 6 24 9 13 8 10 3 9 3 8 10 12 18 13 27 28 33
12 12 11 9 5 7 11 2 6 10 5 3 8 5 6 11 10 13 17 13 9 14 17 16 15 18 18 12 11 8 17 12 11 8 3 13 3 1 14 10 14 22 15 24 25
15 13 10 9 9 7 5 4 9 6 4 3 6 1 8 10 15 14 13 14 13 13 12 12 12 10 16 17 17 12 12 18 15 8 9 12 4 6 10 11 17 29 18 27 33
18 14 8 6 7 4 6 7 7 0 4 4 5 8 10 15 8 15 12 13 14 12 12 17 14 7 9 8 12 18 21 16 13 5 4 12 5 8 16 31 24 20 18 17 22
11 4 4 7 2 4 6 9 3 5 2 5 5 4 8 10 10 9 12 12 11 9 11 13 10 5 10 15 8 7 13 4 3 7 4 15 9 6 23 18 23 22 25 23 29
2 1 2 5 5 6 7 8 5 8 9 1 6 10 7 13 8 9 11 11 16 14 9 10 12 15 15 17 10 11 12 5 3 3 1 4 2 5 23 26 38 35 31 28 29
3 3 5 6 6 3 10 8 7 11 7 9 2 2 9 9 6 9 13 13 13 8 11 7 15 14 13 14 13 13 10 16 5 7 6 1 5 2 20 15 24 29 35 31 17
7 9 8 5 5 6 10 6 6 8 10 6 5 5 8 13 8 3 8 4 1 8 8 6 13 16 13 12 15 16 7 10 5 3 5 6 7 5 9 15 21 24 35 34 30
10 10 3 7 6 12 10 8 3 5 7 8 12 3 6 4 6 1 10 4 4 1 5 12 11 2 10 10 13 11 12 10 13 8 4 8 4 11 3 10 16 26 36 38 35
10 11 5 5 12 12 4 4 3 3 3 4 7 9 7 6 10 6 7 9 12 10 3 10 10 8 12 13 16 16 16 17 10 11 10 10 3 12 16 10 16 30 37 38 38
10 18 5 7 8 10 7 5 8 9 6 8 8 4 10 11 4 10 11 1 3 5 9 11 5 8 13 8 8 13 17 14 15 15 15 9 5 17 17 18 22 20 35 35 38
8 4 8 11 16 12 4 3 5 6 6 6 5 7 6 7 8 2 1 8 2 5 8 4 12 12 5 8 11 15 18 17 16 12 15 13 15 16 16 14 15 20 33 41 38
10 8 10 2 3 3 6 6 2 3 3 1 2 6 8 7 7 3 5 2 7 5 5 5 11 13 4 11 10 15 20 20 18 16 17 13 5 9 9 10 11 12 18 37 35
11 15 15 9 1 7 6 2 4 5 3 5 5 7 7 4 5 8 6 6 3 5 11 10 10 13 14 9 12 15 18 21 18 20 17 16 8 16 13 20 38 8 9 21 26
9 9 12 11 6 9 1 7 6 6 2 4 7 10 7 13 11 14 9 11 1 5 6 9 13 5 13 7 14 9 10 14 15 9 5 12 10 9 10 18 3 8 5 10 15
Wind_Direction
358 356 352 347 340 330 320 314 307 302 297 291 286 276 269 268 262 263 249 215 238 248 194 192 210 228 222 219 228 274 267 222 167 166 243 300 103 50 108 178 136 127 141 136 144
359 359 356 354 351 347 341 330 317 304 299 298 293 283 270 270 277 258 241 220 229 225 198 194 207 207 226 223 189 224 284 335 176 136 182 262 105 161 166 154 109 125 129 142 142
1 1 6 12 11 6 360 351 342 327 314 302 292 283 281 277 297 271 235 231 221 204 201 207 208 213 231 216 198 232 246 147 84 134 153 245 173 152 128 125 133 134 139 150 140
6 5 10 11 11 10 8 4 354 345 330 311 295 279 247 242 282 316 234 218 212 196 201 220 219 221 243 235 196 182 168 153 154 147 152 262 191 102 124 171 136 142 153 144 149
6 6 5 5 4 4 3 5 2 352 341 322 295 258 213 243 257 300 283 223 201 195 201 211 217 219 235 299 144 218 99 111 125 142 125 207 100 122 24 153 138 146 156 152 153
8 8 3 356 354 356 360 1 3 359 345 330 276 230 243 248 247 308 290 206 200 195 201 211 217 221 245 244 351 135 135 125 130 109 84 111 74 115 176 144 147 151 155 161 154
5 7 6 357 345 350 354 353 356 360 358 340 296 219 257 238 4 248 234 195 191 198 202 210 217 232 234 210 163 137 137 131 156 68 95 118 39 158 149 156 152 158 163 163 158
359 1 357 353 345 344 345 342 343 329 357 355 324 258 258 260 242 236 205 197 196 207 217 212 223 250 263 93 235 136 114 173 121 161 27 341 157 178 159 162 158 165 166 157 161
353 351 347 347 343 335 332 331 334 316 310 327 48 274 260 271 213 195 191 195 192 205 213 217 220 242 245 239 226 180 179 128 144 196 118 267 144 213 215 171 171 171 162 162 156
341 345 344 337 333 328 318 321 318 294 328 276 261 263 259 246 182 185 188 191 188 199 209 208 211 235 239 230 232 201 225 127 138 134 151 181 270 197 237 249 182 170 166 160 155
331 337 340 330 323 318 311 328 326 231 224 259 141 263 152 115 159 195 176 180 189 191 205 202 216 220 219 221 193 153 85 126 136 145 134 155 329 257 241 279 239 167 166 148 167
328 330 330 324 317 306 293 281 8 331 312 216 274 281 297 199 195 183 184 182 196 204 212 178 224 235 226 276 57 280 151 151 132 141 113 157 315 208 283 256 256 171 157 161 165
327 322 321 318 314 291 286 284 320 336 299 167 202 218 198 216 211 176 189 205 190 221 213 231 210 230 243 209 252 261 152 159 130 142 83 125 42 198 259 295 298 264 169 173 162
322 317 311 304 324 293 273 310 325 326 347 182 178 95 196 205 222 180 203 208 197 219 234 237 251 203 237 200 212 256 96 105 129 170 205 213 136 225 204 244 288 274 179 201 168
317 311 296 273 286 262 343 323 321 291 322 25 88 130 196 223 122 169 199 232 264 219 222 223 245 246 223 236 166 104 115 145 167 183 151 205 143 163 175 239 229 227 216 180 187
315 305 274 263 263 279 304 309 301 141 251 146 159 175 194 208 202 139 191 241 260 272 234 257 213 232 246 244 244 120 126 106 102 217 230 193 178 203 176 207 214 217 227 217 190
325 299 226 220 268 360 303 297 225 259 79 134 241 164 200 268 151 169 196 209 225 207 218 233 250 264 225 238 187 219 193 174 201 206 235 179 197 232 213 209 199 199 211 204 215
11 137 219 246 275 304 304 262 300 338 83 81 292 142 88 284 135 169 190 211 239 235 218 205 208 210 222 237 179 214 245 201 289 327 57 335 264 231 201 199 193 197 198 209 202
168 205 257 329 320 299 279 247 297 15 340 358 219 90 297 112 281 184 200 217 205 249 282 309 230 181 196 237 251 206 215 244 168 127 274 346 13 333 175 187 186 205 193 208 214
227 259 254 248 233 266 268 329 35 354 313 288 342 65 14 300 213 175 309 49 329 306 356 306 303 190 194 193 259 273 267 220 154 156 300 218 177 304 177 198 182 197 192 203 182
269 278 157 212 237 255 265 60 79 33 317 328 327 267 129 5 286 344 307 324 158 205 310 297 296 175 155 204 235 221 253 263 267 182 141 281 156 167 232 306 187 189 192 194 206
279 275 186 194 256 240 76 61 332 62 182 331 294 328 75 287 34 30 342 7 354 329 264 223 286 282 255 207 216 250 225 242 258 252 241 233 267 172 155 274 251 192 199 192 204
278 260 208 227 274 296 101 167 313 7 46 351 344 1 348 316 323 130 201 239 286 284 31 342 262 266 258 238 238 216 247 251 251 271 279 298 135 181 189 200 191 204 187 192 198
281 281 179 230 268 292 130 206 180 147 291 334 330 285 268 249 263 34 358 273 231 29 5 316 284 300 7 273 273 302 317 249 255 244 260 258 146 182 186 175 193 174 178 191 198
246 287 314 302 213 341 333 25 310 297 85 251 197 291 355 337 329 301 17 22 302 151 266 263 270 287 278 299 285 284 294 304 249 256 248 267 132 171 173 169 186 175 153 165 186
273 330 336 283 165 298 142 154 317 39 33 330 278 48 316 349 343 311 314 331 134 315 327 270 253 276 286 261 246 271 251 287 244 245 258 272 285 160 110 80 357 156 121 121 174
294 287 277 294 252 242 48 83 21 35 131 301 318 301 346 24 359 327 301 296 346 167 31 318 288 354 299 358 339 263 297 285 293 252 286 284 96 91 64 84 295 312 188 114 129
Height
1512 1509 1507 1505 1503 1501 1500 1499 1498 1497 1496 1495 1495 1494 1494 1494 1494 1494 1492 1495 1496 1496 1497 1500 1502 1503 1503 1502 1504 1505 1509 1508 1506 1516 1517 1501 1499 1507 1507 1505 1510 1514 1522 1528 1533
1512 1510 1508 1505 1503 1501 1500 1498 1497 1495 1494 1494 1494 1494 1493 1492 1492 1489 1489 1490 1493 1495 1497 1499 1500 1501 1501 1499 1502 1503 1507 1504 1500 1503 1510 1502 1504 1509 1509 1505 1510 1518 1525 1531 1534
1513 1511 1508 1506 1504 1502 1500 1498 1496 1495 1494 1493 1492 1493 1493 1492 1491 1483 1483 1488 1491 1492 1496 1499 1499 1499 1497 1493 1495 1501 1506 1502 1501 1506 1506 1507 1502 1504 1505 1511 1513 1521 1526 1531 1536
1513 1511 1509 1507 1505 1503 1501 1498 1496 1495 1493 1492 1492 1492 1492 1493 1488 1484 1484 1486 1489 1491 1494 1497 1497 1496 1492 1488 1490 1500 1499 1503 1506 1509 1513 1508 1503 1503 1506 1512 1514 1522 1529 1532 1538
1514 1512 1510 1508 1506 1504 1501 1499 1496 1494 1493 1492 1491 1491 1492 1493 1487 1484 1484 1485 1487 1489 1492 1495 1495 1493 1489 1485 1490 1497 1500 1503 1509 1510 1512 1509 1502 1511 1513 1513 1517 1525 1530 1534 1538
1514 1512 1510 1508 1506 1504 1502 1500 1497 1495 1493 1492 1491 1492 1493 1491 1485 1485 1484 1484 1486 1488 1492 1493 1493 1491 1485 1487 1493 1497 1500 1505 1514 1513 1512 1507 1510 1511 1518 1515 1520 1527 1531 1535 1538
1514 1512 1510 1508 1506 1504 1502 1500 1498 1496 1494 1493 1492 1491 1492 1486 1484 1485 1485 1485 1488 1489 1491 1491 1491 1490 1487 1489 1491 1493 1503 1509 1515 1517 1516 1515 1518 1512 1514 1517 1522 1528 1532 1534 1539
1514 1512 1510 1508 1506 1504 1502 1500 1498 1496 1494 1492 1492 1493 1489 1483 1482 1484 1485 1487 1489 1490 1490 1491 1491 1490 1487 1489 1492 1493 1505 1514 1519 1520 1522 1523 1525 1516 1516 1518 1523 1527 1531 1535 1539
1514 1513 1510 1508 1506 1504 1501 1499 1497 1495 1494 1493 1493 1492 1484 1482 1481 1481 1483 1485 1487 1490 1490 1489 1491 1490 1489 1486 1488 1487 1506 1515 1522 1523 1524 1526 1525 1520 1518 1519 1522 1525 1529 1535 1539
1514 1513 1510 1508 1505 1503 1501 1498 1496 1495 1494 1493 1493 1497 1483 1479 1479 1480 1482 1483 1486 1487 1488 1488 1490 1488 1484 1480 1492 1492 1490 1509 1516 1523 1523 1529 1530 1523 1520 1521 1520 1523 1528 1533 1540
1514 1512 1510 1507 1505 1503 1501 1497 1498 1496 1492 1490 1486 1481 1477 1478 1481 1481 1482 1483 1484 1487 1487 1488 1489 1486 1477 1470 1475 1480 1493 1511 1516 1521 1527 1534 1536 1530 1525 1523 1519 1521 1526 1534 1539
1513 1511 1509 1506 1504 1502 1501 1498 1496 1496 1488 1484 1482 1481 1480 1479 1480 1479 1482 1483 1482 1482 1482 1481 1485 1472 1468 1466 1480 1479 1486 1511 1518 1520 1525 1533 1528 1527 1528 1526 1522 1520 1525 1533 1537
1512 1511 1508 1505 1503 1502 1501 1499 1497 1496 1490 1479 1479 1478 1480 1479 1474 1477 1481 1478 1480 1481 1475 1474 1471 1468 1463 1470 1480 1478 1479 1505 1515 1524 1527 1531 1535 1536 1527 1527 1524 1522 1526 1531 1535
1511 1509 1507 1505 1504 1502 1500 1499 1498 1496 1494 1478 1475 1476 1478 1476 1472 1475 1479 1476 1473 1474 1472 1469 1460 1461 1465 1469 1475 1473 1487 1504 1522 1526 1529 1523 1541 1536 1536 1535 1531 1525 1527 1531 1532
1509 1507 1505 1504 1502 1501 1501 1500 1498 1496 1515 1471 1472 1475 1473 1473 1468 1473 1477 1475 1470 1468 1468 1468 1464 1459 1466 1461 1468 1491 1480 1500 1513 1525 1522 1525 1528 1532 1535 1538 1532 1533 1526 1530 1534
1507 1504 1503 1503 1501 1501 1500 1500 1499 1505 1505 1472 1469 1470 1474 1468 1466 1471 1476 1475 1470 1466 1464 1460 1457 1455 1458 1458 1461 1475 1485 1502 1511 1526 1528 1508 1510 1520 1518 1507 1519 1523 1523 1526 1528
1505 1503 1502 1501 1501 1502 1501 1499 1505 1500 1470 1472 1467 1466 1467 1463 1465 1469 1473 1474 1471 1478 1473 1464 1460 1456 1461 1464 1459 1475 1475 1509 1528 1517 1513 1492 1498 1498 1495 1494 1502 1514 1520 1523 1528
1506 1504 1503 1501 1501 1502 1501 1497 1506 1470 1469 1468 1464 1468 1484 1469 1462 1467 1469 1471 1464 1460 1459 1473 1478 1461 1458 1458 1464 1470 1471 1492 1518 1519 1514 1495 1505 1494 1475 1484 1493 1501 1513 1519 1523
1507 1505 1502 1499 1499 1501 1501 1496 1488 1473 1471 1467 1466 1471 1473 1468 1468 1464 1463 1461 1457 1459 1466 1468 1465 1449 1452 1456 1456 1463 1475 1462 1485 1517 1511 1519 1517 1483 1479 1487 1495 1502 1505 1509 1518
1507 1506 1500 1500 1500 1500 1494 1487 1480 1479 1478 1473 1481 1474 1483 1479 1467 1464 1468 1456 1464 1459 1460 1460 1470 1444 1451 1457 1457 1457 1453 1474 1482 1520 1525 1518 1511 1515 1491 1487 1487 1494 1497 1507 1516
1507 1504 1498 1497 1498 1497 1489 1483 1482 1484 1483 1478 1474 1473 1478 1481 1472 1470 1475 1469 1463 1466 1468 1466 1465 1454 1451 1462 1464 1465 1467 1462 1457 1474 1509 1520 1494 1491 1496 1498 1480 1487 1493 1499 1506
1508 1501 1496 1496 1494 1479 1478 1481 1487 1482 1482 1478 1476 1471 1472 1474 1473 1477 1488 1473 1472 1468 1470 1467 1462 1469 1460 1449 1450 1456 1459 1460 1472 1476 1465 1470 1478 1478 1475 1484 1480 1485 1489 1493 1500
1505 1495 1495 1496 1490 1480 1480 1483 1484 1481 1482 1482 1477 1477 1476 1476 1480 1480 1490 1481 1479 1474 1481 1474 1470 1481 1469 1456 1451 1458 1457 1453 1453 1454 1464 1474 1488 1476 1477 1472 1474 1478 1486 1490 1495
1506 1491 1489 1491 1485 1477 1479 1480 1481 1487 1486 1487 1486 1482 1478 1478 1473 1481 1481 1485 1481 1478 1483 1481 1475 1476 1496 1489 1482 1475 1463 1454 1454 1467 1463 1456 1469 1465 1460 1466 1471 1471 1478 1485 1490
1504 1492 1486 1483 1479 1479 1482 1482 1484 1483 1486 1487 1485 1484 1482 1485 1478 1478 1477 1483 1481 1482 1483 1481 1486 1477 1473 1478 1473 1476 1472 1460 1459 1454 1463 1449 1459 1461 1461 1467 1476 1478 1476 1483 1492
1502 1496 1490 1485 1487 1486 1488 1486 1486 1484 1490 1485 1489 1484 1486 1486 1487 1489 1483 1480 1485 1484 1483 1478 1486 1479 1481 1473 1475 1477 1470 1462 1451 1451 1450 1447 1452 1451 1469 1467 1493 1490 1490 1489 1495
1503 1500 1499 1490 1485 1483 1480 1484 1487 1493 1494 1494 1494 1491 1485 1488 1488 1488 1484 1482 1480 1489 1496 1496 1482 1486 1490 1475 1482 1484 1472 1471 1455 1447 1453 1461 1473 1474 1478 1481 1500 1499 1500 1502 1501